Tracking 20942 objects as of 9-Jul-2020
HD Live streaming from Space Station
objects crossing your sky now

ELEKTRON 3

Track ELEKTRON 3 now!
10-day predictions
ELEKTRON 3 is classified as:


NORAD ID: 829
Int'l Code: 1964-038A
Perigee: 407.3 km
Apogee: 6,176.0 km
Inclination: 60.8 °
Period: 157.5 minutes
Semi major axis: 9662 km
RCS: 2.8255 m2 (large)
Launch date: July 10, 1964
Source: Commonwealth of Independent States (former USSR) (CIS)
Launch site: TYURATAM MISSILE AND SPACE COMPLEX (TTMTR)
aabbcc
Your satellite tracking list
Your tracking list is empty




NASA's NSSDC Master Catalog

Two Line Element Set (TLE):
1   829U 64038A   20191.43457295 +.00000270 +00000-0 +83387-4 0  9994
2   829 060.8069 301.5714 2985052 132.4107 257.1233 09.14029472816589
Source of the keplerian elements: AFSPC